Antigo, WI

1:18 PM CDT on March 28, 2017 (GMT -0500)
Langlade County

Weather History for KAIG - May, 2013

Change the Weather History Date:

Friday, May 10, 2013

  Actual Average Record
Temperature  
Mean Temperature 46 °F -  
Max Temperature 59 °F 64 °F 82 °F (2007)
Min Temperature 34 °F 37 °F 19 °F (1966)
Degree Days  
Heating Degree Days 18    
Moisture  
Dew Point 32 °F    
Average Humidity 65    
Maximum Humidity 95    
Minimum Humidity 28    
Precipitation  
Precipitation 0.00 in - - ()
Sea Level Pressure  
Sea Level Pressure 29.98 in    
Wind  
Wind Speed 11 mph (NE)    
Max Wind Speed 18 mph    
Max Gust Speed 29 mph    
Visibility 10 miles    
Events      
Averages and records for this station are not official NWS values.
T = Trace of Precipitation, MM = Missing Value Source: NWS Daily Summary

Daily Weather History Graph

Daily Weather History Graph

Search for Another Location

Airport or City:

Trip Planner

Search our weather history database for the weather conditions in past years. The results will help you decide how hot, cold, wet, or windy it might be!

Date:

Astronomy

May. 10, 2013 Rise Set
Actual Time 5:32 AM CDT 8:13 PM CDT
Civil Twilight 4:58 AM CDT 8:47 PM CDT
Nautical Twilight 4:16 AM CDT 9:30 PM CDT
Astronomical Twilight 3:27 AM CDT 10:19 PM CDT
Moon 5:56 AM CDT (5/10) 9:04 PM CDT (5/10)
Length of Visible Light 15h 48m
Length of Day
14h 41m
New Moon, 0% of the Moon is Illuminated
May 10
New Moon
May 17
First Quarter
May 24
Full
May 31
Last Quarter
Jun 8
New

Hourly Weather History & Observations

Time (CDT) Temp. Windchill Dew Point Humidity Pressure Visibility Wind Dir Wind Speed Gust Speed Precip Events Conditions
12:15 AM 36.7 °F 26.9 °F 35.2 °F 95% 30.05 in 10.0 mi NNE 17.3 mph - N/A   Overcast
12:55 AM 36.5 °F 27.4 °F 34.9 °F 94% 30.04 in 10.0 mi NNE 15.0 mph 25.3 mph N/A   Overcast
1:15 AM 36.1 °F 25.9 °F 34.5 °F 94% 30.03 in 10.0 mi NE 18.4 mph 26.5 mph N/A   Overcast
1:35 AM 35.8 °F 25.4 °F 33.8 °F 92% 30.02 in 10.0 mi NNE 18.4 mph 28.8 mph N/A   Overcast
1:55 AM 35.6 °F 26.2 °F 33.4 °F 92% 30.02 in 10.0 mi NNE 15.0 mph - N/A   Overcast
2:15 AM 35.4 °F 26.4 °F 33.3 °F 92% 30.01 in 10.0 mi NNE 13.8 mph 19.6 mph N/A   Mostly Cloudy
2:35 AM 35.2 °F 24.7 °F 33.1 °F 92% 30.01 in 10.0 mi NNE 18.4 mph 23.0 mph N/A   Overcast
2:55 AM 35.1 °F 25.2 °F 32.4 °F 90% 30.01 in 10.0 mi NNE 16.1 mph - N/A   Overcast
3:15 AM 35.1 °F 25.5 °F 32.2 °F 89% 30.00 in 10.0 mi NNE 15.0 mph 18.4 mph N/A   Overcast
3:35 AM 35.2 °F 27.1 °F 32.0 °F 88% 30.01 in 10.0 mi NNE 11.5 mph 18.4 mph N/A   Overcast
3:55 AM 35.2 °F 25.8 °F 32.0 °F 88% 30.01 in 10.0 mi NNE 15.0 mph - N/A   Overcast
4:15 AM 35.1 °F 27.9 °F 32.0 °F 89% 30.02 in 10.0 mi NNE 9.2 mph - N/A   Overcast
4:35 AM 35.1 °F 27.9 °F 31.6 °F 87% 30.02 in 10.0 mi NNE 9.2 mph - N/A   Overcast
4:55 AM 35.2 °F 28.1 °F 31.5 °F 86% 30.02 in 10.0 mi NNE 9.2 mph - N/A   Overcast
5:15 AM 35.1 °F 27.9 °F 31.6 °F 87% 30.02 in 10.0 mi NNE 9.2 mph - N/A   Overcast
5:35 AM 34.7 °F 27.5 °F 31.5 °F 88% 30.01 in 10.0 mi NNE 9.2 mph - N/A   Overcast
5:55 AM 34.7 °F 27.5 °F 31.6 °F 89% 30.02 in 10.0 mi NNE 9.2 mph - N/A   Overcast
6:15 AM 34.7 °F 26.9 °F 32.0 °F 90% 30.02 in 10.0 mi NNE 10.4 mph - N/A   Overcast
6:35 AM 34.7 °F 26.4 °F 31.8 °F 89% 30.03 in 10.0 mi NNE 11.5 mph 16.1 mph N/A   Overcast
7:15 AM 34.7 °F 25.5 °F 31.3 °F 87% 30.03 in 10.0 mi NNE 13.8 mph - N/A   Overcast
7:35 AM 34.9 °F 26.6 °F 31.3 °F 87% 30.03 in 10.0 mi NNE 11.5 mph - N/A   Overcast
8:15 AM 36.7 °F 29.9 °F 32.0 °F 83% 30.03 in 10.0 mi NNE 9.2 mph - N/A   Overcast
8:35 AM 38.3 °F 30.9 °F 32.4 °F 79% 30.03 in 10.0 mi NE 11.5 mph - N/A   Scattered Clouds
8:55 AM 39.4 °F 32.7 °F 32.2 °F 75% 30.03 in 10.0 mi NNE 10.4 mph - N/A   Clear
9:15 AM 40.8 °F 34.5 °F 32.4 °F 72% 30.03 in 10.0 mi NNE 10.4 mph - N/A   Clear
9:35 AM 42.1 °F 36.1 °F 32.7 °F 69% 30.03 in 10.0 mi NNE 10.4 mph - N/A   Clear
9:55 AM 43.5 °F 38.3 °F 32.4 °F 65% 30.02 in 10.0 mi NNE 9.2 mph - N/A   Clear
10:15 AM 44.8 °F 40.4 °F 32.0 °F 61% 30.02 in 10.0 mi NE 8.1 mph - N/A   Clear
10:35 AM 46.0 °F 41.4 °F 32.4 °F 59% 30.02 in 10.0 mi NE 9.2 mph - N/A   Clear
10:55 AM 47.5 °F - 32.7 °F 57% 30.02 in 10.0 mi NE 10.4 mph - N/A   Clear
11:15 AM 48.6 °F - 32.9 °F 55% 30.02 in 10.0 mi NE 11.5 mph - N/A   Clear
11:35 AM 50.0 °F - 34.0 °F 54% 30.02 in 10.0 mi NE 11.5 mph - N/A   Clear
12:15 PM 51.1 °F - 32.7 °F 50% 30.01 in 10.0 mi ENE 5.8 mph - N/A   Clear
12:35 PM 52.3 °F - 32.7 °F 47% 30.01 in 10.0 mi NNE 6.9 mph - N/A   Clear
12:55 PM 52.5 °F - 31.1 °F 44% 30.00 in 10.0 mi NE 5.8 mph - N/A   Clear
1:15 PM 53.8 °F - 30.9 °F 42% 29.99 in 10.0 mi NNE 5.8 mph - N/A   Clear
1:35 PM 53.8 °F - 29.7 °F 40% 29.99 in 10.0 mi North 5.8 mph - N/A   Clear
1:55 PM 55.4 °F - 28.4 °F 36% 29.98 in 10.0 mi North 6.9 mph - N/A   Clear
2:15 PM 55.4 °F - 27.1 °F 34% 29.99 in 10.0 mi ESE 3.5 mph - N/A   Clear
2:35 PM 55.6 °F - 25.9 °F 32% 29.98 in 10.0 mi Calm Calm - N/A   Clear
2:55 PM 56.7 °F - 26.8 °F 32% 29.98 in 10.0 mi Calm Calm - N/A   Clear
3:15 PM 57.4 °F - 26.1 °F 30% 29.98 in 10.0 mi ENE 5.8 mph - N/A   Clear
3:35 PM 58.8 °F - 28.4 °F 31% 29.97 in 10.0 mi Calm Calm - N/A   Clear
3:55 PM 58.5 °F - 26.8 °F 30% 29.96 in 10.0 mi Calm Calm - N/A   Clear
4:15 PM 58.6 °F - 27.3 °F 30% 29.95 in 10.0 mi Calm Calm - N/A   Clear
4:35 PM 59.0 °F - 27.7 °F 30% 29.95 in 10.0 mi North 5.8 mph - N/A   Clear
4:55 PM 59.0 °F - 26.1 °F 28% 29.94 in 10.0 mi NNW 3.5 mph - N/A   Clear
5:35 PM 59.0 °F - 27.0 °F 29% 29.93 in 10.0 mi East 3.5 mph - N/A   Clear
5:55 PM 58.5 °F - 25.5 °F 28% 29.92 in 10.0 mi Calm Calm - N/A   Clear
6:15 PM 58.5 °F - 26.1 °F 29% 29.92 in 10.0 mi SSE 3.5 mph - N/A   Clear
6:35 PM 58.6 °F - 26.8 °F 30% 29.91 in 10.0 mi SE 3.5 mph - N/A   Clear
6:55 PM 58.3 °F - 28.4 °F 32% 29.91 in 10.0 mi SSE 4.6 mph - N/A   Clear
7:15 PM 57.7 °F - 28.0 °F 32% 29.91 in 10.0 mi SSE 3.5 mph - N/A   Clear
7:35 PM 56.7 °F - 27.9 °F 33% 29.92 in 10.0 mi Calm Calm - N/A   Clear
7:55 PM 56.3 °F - 30.0 °F 37% 29.91 in 10.0 mi SSE 3.5 mph - N/A   Clear
8:15 PM 52.7 °F - 34.3 °F 50% 29.91 in 10.0 mi SSE 3.5 mph - N/A   Clear
8:35 PM 49.3 °F - 38.5 °F 66% 29.91 in 10.0 mi Calm Calm - N/A   Clear
8:55 PM 48.7 °F - 39.7 °F 71% 29.91 in 10.0 mi SSE 4.6 mph - N/A   Clear
9:15 PM 47.7 °F - 38.7 °F 71% 29.91 in 10.0 mi SSE 9.2 mph - N/A   Clear
9:35 PM 47.1 °F - 41.5 °F 81% 29.92 in 10.0 mi SSE 8.1 mph - N/A   Clear
9:55 PM 46.4 °F 42.4 °F 41.9 °F 84% 29.92 in 10.0 mi SSE 8.1 mph - N/A   Clear
10:15 PM 46.4 °F 41.9 °F 42.8 °F 87% 29.92 in 10.0 mi SSE 9.2 mph - N/A   Clear
10:35 PM 44.6 °F 40.7 °F 41.9 °F 90% 29.92 in 10.0 mi SE 6.9 mph - N/A   Clear
10:55 PM 43.7 °F 38.1 °F 41.0 °F 90% 29.91 in 10.0 mi SE 10.4 mph - N/A   Clear
11:15 PM 42.8 °F 37.5 °F 40.3 °F 91% 29.90 in 10.0 mi SE 9.2 mph - N/A   Clear
11:35 PM 42.1 °F 37.1 °F 39.9 °F 92% 29.90 in 10.0 mi SE 8.1 mph - N/A   Clear
11:55 PM 41.7 °F 35.6 °F 39.4 °F 91% 29.90 in 10.0 mi SSE 10.4 mph - N/A   Scattered Clouds